TimeEDT,TemperatureF,Dew PointF,Humidity,Sea Level PressureIn,VisibilityMPH,Wind Direction,Wind SpeedMPH,Gust SpeedMPH,PrecipitationIn,Events,Conditions,WindDirDegrees,DateUTC
12:53 AM,57.9,55.0,90,30.07,10.0,Calm,Calm,-,N/A,,Scattered Clouds,0,2013-09-04 04:53:00
1:53 AM,57.0,55.0,93,30.07,8.0,Calm,Calm,-,N/A,,Clear,0,2013-09-04 05:53:00
2:53 AM,55.9,54.0,93,30.07,5.0,Calm,Calm,-,N/A,,Clear,0,2013-09-04 06:53:00
3:15 AM,55.4,53.6,94,30.09,3.0,Calm,Calm,-,N/A,,Partly Cloudy,0,2013-09-04 07:15:00
3:53 AM,55.0,53.1,93,30.08,5.0,Calm,Calm,-,N/A,,Clear,0,2013-09-04 07:53:00
4:53 AM,54.0,53.1,97,30.09,6.0,Calm,Calm,-,N/A,,Clear,0,2013-09-04 08:53:00
5:25 AM,53.6,51.8,94,30.12,4.0,Calm,Calm,-,N/A,,Partly Cloudy,0,2013-09-04 09:25:00
5:53 AM,54.0,52.0,93,30.11,8.0,Calm,Calm,-,N/A,,Clear,0,2013-09-04 09:53:00
6:15 AM,53.6,51.8,94,30.13,1.8,Calm,Calm,-,N/A,,Partly Cloudy,0,2013-09-04 10:15:00
6:18 AM,53.6,51.8,94,30.13,0.8,Calm,Calm,-,N/A,,Mist,0,2013-09-04 10:18:00
6:28 AM,53.6,53.6,100,30.13,0.2,Calm,Calm,-,N/A,Fog,Fog,0,2013-09-04 10:28:00
6:53 AM,53.1,53.1,100,30.13,0.2,Calm,Calm,-,0.01,Fog,Fog,0,2013-09-04 10:53:00
7:07 AM,53.6,53.6,100,30.14,0.5,Calm,Calm,-,N/A,Fog,Fog,0,2013-09-04 11:07:00
7:14 AM,53.6,53.6,100,30.15,2.0,Calm,Calm,-,N/A,,Overcast,0,2013-09-04 11:14:00
7:26 AM,53.6,53.6,100,30.15,4.0,Calm,Calm,-,N/A,,Overcast,0,2013-09-04 11:26:00
7:53 AM,55.0,54.0,96,30.15,8.0,Calm,Calm,-,N/A,,Mostly Cloudy,0,2013-09-04 11:53:00
8:53 AM,57.9,55.0,90,30.16,10.0,Calm,Calm,-,N/A,,Clear,0,2013-09-04 12:53:00
9:53 AM,62.1,55.9,80,30.17,10.0,Variable,3.5,-,N/A,,Clear,0,2013-09-04 13:53:00
10:53 AM,66.9,53.1,61,30.16,10.0,Calm,Calm,-,N/A,,Clear,0,2013-09-04 14:53:00
11:53 AM,69.1,54.0,58,30.16,10.0,West,4.6,-,N/A,,Clear,270,2013-09-04 15:53:00
12:53 PM,70.0,54.0,57,30.14,10.0,Variable,3.5,-,N/A,,Clear,0,2013-09-04 16:53:00
1:53 PM,72.0,55.0,55,30.12,10.0,SW,3.5,-,N/A,,Clear,230,2013-09-04 17:53:00
2:53 PM,75.0,55.0,50,30.11,10.0,Calm,Calm,-,N/A,,Clear,0,2013-09-04 18:53:00
3:53 PM,75.9,53.1,45,30.10,10.0,WSW,6.9,-,N/A,,Clear,240,2013-09-04 19:53:00
4:53 PM,75.9,55.0,48,30.11,10.0,Variable,5.8,-,N/A,,Clear,0,2013-09-04 20:53:00
5:53 PM,75.9,54.0,46,30.10,10.0,Variable,4.6,-,N/A,,Clear,0,2013-09-04 21:53:00
6:53 PM,73.9,55.0,52,30.10,10.0,WSW,3.5,-,N/A,,Clear,250,2013-09-04 22:53:00
7:53 PM,71.1,55.0,57,30.10,10.0,WSW,4.6,-,N/A,,Clear,240,2013-09-04 23:53:00
8:53 PM,64.0,57.9,80,30.12,10.0,Calm,Calm,-,N/A,,Clear,0,2013-09-05 00:53:00
9:53 PM,64.0,57.0,78,30.14,10.0,Calm,Calm,-,N/A,,Clear,0,2013-09-05 01:53:00
10:53 PM,60.1,57.9,93,30.13,10.0,South,3.5,-,N/A,,Clear,180,2013-09-05 02:53:00
11:53 PM,61.0,57.0,87,30.14,10.0,Calm,Calm,-,N/A,,Clear,0,2013-09-05 03:53:00